Weather History for Lander, WY

Change the Weather History Date:

Wednesday, May 23, 2012

  Actual Average Record
Temperature  
Mean Temperature 55 °F 56 °F  
Max Temperature 66 °F 69 °F 85 °F (1984)
Min Temperature 44 °F 42 °F 26 °F (1916)
Degree Days  
Heating Degree Days 10 10  
Month to date heating degree days 195 300  
Since 1 July heating degree days 6638 7554  
Cooling Degree Days 0 0  
Month to date cooling degree days 8 0  
Year to date cooling degree days 9 0  
Growing Degree Days 4 (Base 50)    
Moisture  
Dew Point 26 °F    
Average Humidity 43    
Maximum Humidity 70    
Minimum Humidity 16    
Precipitation  
Precipitation 0.01 in 0.07 in 1.46 in (1906)
Month to date precipitation 0.94 1.67  
Year to date precipitation 3.63 5.69  
Snow  
Snow 0.00 in 0.10 in - ()
Month to date snowfall 0.0 4.6  
Since 1 July snowfall 63.3 91.1  
Snow Depth 0.00 in    
Sea Level Pressure  
Sea Level Pressure 29.55 in    
Wind  
Wind Speed 11 mph (NW)    
Max Wind Speed 27 mph    
Max Gust Speed 38 mph    
Visibility 10 miles    
Events Thunderstorm    
T = Trace of Precipitation, MM = Missing Value Source: NWS Daily Summary

Daily Weather History Graph

Daily Weather History Graph

Search for Another Location

Airport:

Trip Planner

Search our weather history database for the weather conditions in past years. The results will help you decide how hot, cold, wet, or windy it might be!

Date:

Astronomy

May. 23, 2012 Rise Set
Actual Time 5:44 AM MDT 8:39 PM MDT
Civil Twilight 5:11 AM MDT 9:13 PM MDT
Nautical Twilight 4:28 AM MDT 9:55 PM MDT
Astronomical Twilight 3:39 AM MDT 10:45 PM MDT
Moon 7:50 AM MDT (5/23) 11:02 PM MDT (5/23)
Length of Visible Light 16h 02m
Length of Day
14h 55m
Waxing Crescent, 7% of the Moon is Illuminated
May 23
Waxing Crescent
May 28
First Quarter
Jun 4
Full
Jun 11
Last Quarter
Jun 19
New

Hourly Weather History & Observations

Time (MDT) Temp. Windchill Dew Point Humidity Pressure Visibility Wind Dir Wind Speed Gust Speed Precip Events Conditions
12:53 AM 57.0 °F - 28.0 °F 33% 29.54 in 10.0 mi WSW 10.4 mph - N/A   Mostly Cloudy
1:53 AM 57.0 °F - 24.1 °F 28% 29.52 in 10.0 mi WSW 17.3 mph - N/A   Scattered Clouds
2:53 AM 55.0 °F - 21.9 °F 28% 29.51 in 10.0 mi West 26.5 mph 32.2 mph N/A   Clear
3:53 AM 53.1 °F - 24.1 °F 32% 29.52 in 10.0 mi WSW 17.3 mph 24.2 mph N/A   Clear
4:53 AM 50.0 °F - 23.0 °F 35% 29.55 in 10.0 mi WSW 10.4 mph - N/A   Clear
5:53 AM 48.0 °F - 23.0 °F 37% 29.55 in 10.0 mi SW 12.7 mph - N/A   Clear
6:53 AM 51.1 °F - 25.0 °F 36% 29.54 in 10.0 mi NE 9.2 mph - N/A   Clear
7:53 AM 55.0 °F - 23.0 °F 29% 29.54 in 10.0 mi NW 10.4 mph - N/A   Partly Cloudy
8:53 AM 57.0 °F - 21.9 °F 26% 29.53 in 10.0 mi NNW 5.8 mph - N/A   Clear
9:53 AM 57.9 °F - 23.0 °F 26% 29.52 in 10.0 mi ENE 4.6 mph - N/A   Clear
10:53 AM 59.0 °F - 24.1 °F 26% 29.49 in 10.0 mi Variable 4.6 mph - N/A   Scattered Clouds
11:53 AM 62.1 °F - 17.1 °F 18% 29.47 in 10.0 mi SW 5.8 mph - N/A   Partly Cloudy
12:53 PM 61.0 °F - 16.0 °F 17% 29.46 in 10.0 mi WNW 10.4 mph 20.7 mph N/A   Clear
1:53 PM 63.0 °F - 17.1 °F 17% 29.45 in 10.0 mi WSW 12.7 mph 25.3 mph N/A   Clear
2:53 PM 64.0 °F - 17.1 °F 16% 29.43 in 10.0 mi West 18.4 mph 26.5 mph N/A   Clear
3:53 PM 63.0 °F - 21.9 °F 21% 29.44 in 10.0 mi West 11.5 mph 24.2 mph N/A   Clear
4:53 PM 63.0 °F - 19.0 °F 18% 29.45 in 10.0 mi West 15.0 mph 26.5 mph N/A   Clear
5:37 PM 59.0 °F - 28.4 °F 31% 29.60 in 10.0 mi North 17.3 mph 25.3 mph N/A   Mostly Cloudy
5:53 PM 57.0 °F - 28.0 °F 33% 29.49 in 10.0 mi NNE 16.1 mph - N/A Thunderstorm Thunderstorm
6:14 PM 57.2 °F - 28.4 °F 33% 29.62 in 10.0 mi North 11.5 mph - N/A   Mostly Cloudy
6:53 PM 57.9 °F - 25.0 °F 28% 29.49 in 10.0 mi North 17.3 mph 21.9 mph N/A   Scattered Clouds
7:53 PM 52.0 °F - 28.0 °F 40% 29.53 in 10.0 mi North 16.1 mph 28.8 mph N/A   Mostly Cloudy
8:07 PM 50.0 °F - 33.8 °F 54% 29.67 in 10.0 mi NE 13.8 mph 27.6 mph N/A Thunderstorm Thunderstorm
8:19 PM 48.2 °F - 33.8 °F 58% 29.68 in 10.0 mi NE 13.8 mph 21.9 mph N/A Thunderstorm Thunderstorm
8:45 PM 46.4 °F 44.3 °F 33.8 °F 62% 29.70 in 10.0 mi North 4.6 mph - N/A Thunderstorm Thunderstorm
8:53 PM 46.9 °F - 35.1 °F 63% 29.60 in 10.0 mi Calm Calm - N/A Thunderstorm Thunderstorm
9:07 PM 46.4 °F 45.2 °F 33.8 °F 62% 29.72 in 10.0 mi SE 3.5 mph - N/A   Overcast
9:53 PM 45.0 °F 41.2 °F 35.1 °F 68% 29.64 in 10.0 mi ENE 6.9 mph - N/A   Mostly Cloudy
10:53 PM 45.0 °F 43.5 °F 35.1 °F 68% 29.64 in 10.0 mi East 3.5 mph - N/A   Overcast
11:53 PM 44.1 °F - 36.0 °F 73% 29.63 in 10.0 mi Calm Calm - N/A   Overcast